K3RTA Weather Reports


Display with metric or nautical units.
time (UTC)temp
F
wind
direction
speed
MPH
gust
MPH
rain 1hr
in
rain 24hr
in
rain mn
in
humidity
%
barometer
mb
20260504082004 44 255 0.0 0.0 0.00 0.00 0.00 81 1014.1
20260504081005 44 255 0.0 0.0 0.00 0.00 0.00 81 1014.1
20260504050004 45 190 0.0 0.0 0.00 0.00 0.00 73 1014.0
20260504043004 43 260 0.0 0.0 0.00 0.00 0.00 77 1013.9
20260504042004 43 260 0.0 0.0 0.00 0.00 0.00 78 1013.8
20260504041004 43 260 0.0 0.0 0.00 0.00 0.00 78 1013.7
20260504034004 44 260 0.0 0.0 0.00 0.00 0.00 76 1013.4
20260504033004 44 260 0.0 0.0 0.00 0.00 0.00 74 1013.4
20260504032005 44 260 0.0 0.0 0.00 0.00 0.00 74 1013.3
20260504031004 45 260 0.0 0.0 0.00 0.00 0.00 73 1013.3
20260504030004 45 260 0.0 0.0 0.00 0.00 0.00 72 1013.2
20260504024004 45 260 0.0 0.0 0.00 0.00 0.00 69 1013.2
20260504023004 46 260 0.0 0.0 0.00 0.00 0.00 68 1013.3
20260504021005 47 260 0.0 0.0 0.00 0.00 0.00 65 1013.3
20260504020004 47 260 0.0 0.0 0.00 0.00 0.00 63 1013.2
20260504015004 48 260 0.0 0.0 0.00 0.00 0.00 61 1013.2
20260504014004 48 260 0.0 0.0 0.00 0.00 0.00 61 1013.1
20260504013005 49 260 0.0 0.0 0.00 0.00 0.00 58 1013.0
20260504011004 50 260 0.0 0.0 0.00 0.00 0.00 55 1012.9
20260504010004 51 260 0.0 0.0 0.00 0.00 0.00 53 1012.8
20260504005004 52 260 0.0 0.0 0.00 0.00 0.00 51 1012.6
20260504004005 53 260 0.0 0.0 0.00 0.00 0.00 49 1012.5
20260504003004 54 260 0.0 0.0 0.00 0.00 0.00 46 1012.4
20260504002004 55 260 0.0 0.0 0.00 0.00 0.00 41 1012.3
20260504001004 57 260 0.0 0.0 0.00 0.00 0.00 39 1012.1
20260504000004 57 260 0.0 0.0 0.00 0.00 0.00 37 1012.0
20260503235004 58 283 0.0 0.0 0.00 0.00 0.00 35 1011.9
20260503234004 59 281 0.0 0.0 0.00 0.00 0.00 34 1011.9
20260503233004 60 269 0.0 0.0 0.00 0.00 0.00 34 1011.8
20260503232004 61 292 0.0 2.0 0.00 0.00 0.00 32 1011.9
20260503231004 61 290 0.0 1.0 0.00 0.00 0.00 31 1011.8
20260503230004 62 267 0.0 3.0 0.00 0.00 0.00 30 1011.7
20260503225004 62 290 0.0 3.0 0.00 0.00 0.00 32 1011.6
20260503224004 61 293 1.0 7.0 0.00 0.00 0.00 30 1011.7
20260503223004 62 298 0.0 3.0 0.00 0.00 0.00 30 1011.8
20260503222004 62 65 0.0 2.0 0.00 0.00 0.00 30 1011.7
20260503221004 61 310 0.0 9.0 0.00 0.00 0.00 30 1011.8
20260503215004 61 286 1.0 15.0 0.00 0.00 0.00 30 1011.8
20260503213006 61 278 1.0 12.0 0.00 0.00 0.00 28 1011.7
20260503212004 61 297 1.0 15.0 0.00 0.00 0.00 30 1011.7
20260503211004 61 283 2.0 14.0 0.00 0.00 0.00 29 1011.7
20260503210005 61 299 0.0 9.0 0.00 0.00 0.00 30 1011.6
20260503205004 61 284 0.0 12.0 0.00 0.00 0.00 31 1011.7
20260503204004 60 294 0.0 10.0 0.00 0.00 0.00 31 1011.8
20260503203004 60 285 2.0 7.0 0.00 0.00 0.00 32 1011.9
20260503201004 60 283 2.0 12.0 0.00 0.00 0.00 32 1012.1
20260503200004 60 268 0.0 6.0 0.00 0.00 0.00 32 1012.1
20260503194004 59 291 2.0 14.0 0.00 0.00 0.00 32 1012.2
20260503192005 59 282 0.0 10.0 0.00 0.00 0.00 32 1012.4
20260503191004 58 290 1.0 7.0 0.00 0.00 0.00 33 1012.6
20260503190005 59 300 1.0 14.0 0.00 0.00 0.00 32 1012.7
20260503185005 58 353 1.0 8.0 0.00 0.00 0.00 32 1012.8
20260503184004 58 270 3.0 20.0 0.00 0.00 0.00 33 1012.8
20260503183004 58 274 3.0 15.0 0.00 0.00 0.00 32 1013.1
20260503182005 57 287 2.0 12.0 0.00 0.00 0.00 33 1013.0
20260503181005 57 316 2.0 15.0 0.00 0.00 0.00 33 1013.0
20260503180004 57 282 0.0 12.0 0.00 0.00 0.00 34 1013.0
20260503172004 56 268 0.0 12.0 0.00 0.00 0.00 36 1013.4
20260503171004 54 300 0.0 10.0 0.00 0.00 0.00 37 1013.5
20260503151004 51 305 1.0 7.0 0.00 0.00 0.00 46 1013.9
20260503131004 48 323 0.0 8.0 0.00 0.00 0.00 59 1013.6